sat.trackr.live / text

‹ back to catalog

STARLINK-35572

NORAD 66117 · 2025-237D

PAYLOAD ACTIVE UNKNOWN

§ Identity

Operator
Country
US
Launch date
2025-10-22
Launch site
AFWTR
Launch vehicle
Mass (kg)
RCS (m²)

Purposes: comms

External: N2YO · Heavens-Above · Gunter

§ Orbital elements

Epoch: 2026-05-25T03:16:21.974880Z

Period
94.11 min
Inclination
53.1583°
Eccentricity
0.0001177
Mean motion
15.30201610 rev/d
Perigee alt
474.4 km
Apogee alt
476.0 km
Semi-major
6,853.3 km
B*
6.5778e-4
RAAN
44.6229°
Arg perigee
79.3083°
Mean anomaly
280.8050°
Rev number
3,431

§ Raw data

STARLINK-355721 66117U 25237D   26145.13636545  .00019174  00000+0  65778-3 0  99982 66117  53.1583  44.6229 0001177  79.3083 280.8050 15.30201610 34314

JSON: /api/v1/satellites/66117 · /tle

For live sub-satellite position, see the globe view (requires WebGL).

§ Visibility from observer

Set your observer location to see the next 7 days of passes ≥ 10°. The values pass through the URL so the page stays shareable.

No JS? Fill the form by hand. The geolocation button needs JavaScript.